Simultaneous Nadir Overpasses (SNOs) Predictions

Prediction of SNOs between NOAA-19 and METOP-C Satellite Orbit:

Table of predicted SNOs for the next 14.0 days since TLE Epoch: 1/7/2023
Index Date (NOAA-19) Time (NOAA-19) Lat,Lon (NOAA-19) SZA (NOAA-19 ) Date (METOP-C) Time (METOP-C) Lat,Lon (METOP-C) SZA (METOP-C ) Distance(km) Time Diff (sec)
1 01/09/2023 23:26:49 80.92,-136.85 104.30 01/09/2023 23:27:52 80.93,-136.73 104.34 2.19 63
2 01/10/2023 00:17:52 -80.92, 30.52 75.70 01/10/2023 00:18:31 -80.93, 30.54 75.68 0.61 39
3 01/10/2023 01:08:47 80.92,-162.15 104.31 01/10/2023 01:09:13 80.92,-162.24 104.31 1.49 26
4 01/10/2023 01:59:51 -80.92, 5.22 75.69 01/10/2023 01:59:53 -80.92, 5.04 75.71 3.06 2
5 01/10/2023 02:50:46 80.92, 172.55 104.31 01/10/2023 02:50:34 80.93, 172.62 104.32 1.65 12
6 01/10/2023 03:41:50 -80.92, -20.09 75.69 01/10/2023 03:41:14 -80.93, -20.10 75.69 0.79 36
7 01/10/2023 04:32:45 80.92, 147.25 104.32 01/10/2023 04:31:56 80.92, 147.12 104.29 2.28 49



Historial Predications of SNOs between NOAA-19 and METOP-C
